Regional Weather Roundup
Issued by NWS Northern Indiana

Home | Current Version | Previous Version | Text Only | Print | Product List | Glossary Off
Versions: 1 2 3 4 5 6 7 8 9 10 11 12 13 14 15 16 17 18 19 20 21 22 23 24 25 26 27 28 29 30 31 32 33 34 35 36 37 38 39 40 41 42 43 44 45 46 47 48 49 50

000
ASUS43 KIWX 240300
RWRIWX

KIWX WEATHER ROUNDUP
NATIONAL WEATHER SERVICE NORTHERN INDIANA
1000 PM EST THU NOV 23 2017

NOTE: "FAIR" INDICATES FEW OR NO CLOUDS BELOW 12,000 FEET WITH NO
SIGNIFICANT WEATHER AND/OR OBSTRUCTIONS TO VISIBILITY.

* THESE STATIONS ARE NOT UNDER NWS QUALITY CONTROL. THEY ALSO MAY NOT
  REPORT WEATHER SUCH AS PRECIPITATION OR FOG.

INZ001>027-240400-
NORTHERN INDIANA

CITY           SKY/WX    TMP DP  RH WIND       PRES   REMARKS
GARY*          CLEAR     36  28  75 S5        29.93F
MICHIGAN CITY* CLEAR     36  28  75 S5        29.94S
KNOX*          CLEAR     34  27  75 S7        29.95S WCI  28
SOUTH BEND     CLEAR     33  25  72 SW6       29.95S WCI  28
GOSHEN         CLEAR     34  23  64 S6        29.95F WCI  29
MONTICELLO*    CLEAR     36  23  59 S6        29.97S
WARSAW*        CLEAR     36  25  64 SW3       29.96S
AUBURN*        CLEAR     32  23  69 CALM      29.98F
FORT WAYNE     PTCLDY    32  25  75 S8        29.98F WCI  25
PERU/GRISSOM   CLEAR     32  24  72 S8        29.96F WCI  25

$$
INZ028>050-240400-
CENTRAL INDIANA

CITY           SKY/WX    TMP DP  RH WIND       PRES   REMARKS
LAFAYETTE      CLEAR     35  25  66 CALM      29.98S
KOKOMO*        CLEAR     32  24  72 S7        29.98F WCI  26
MUNCIE*        CLEAR     37  24  59 SW6       30.00F
INDIANAPOLIS   CLEAR     35  20  54 S5        30.01F WCI  31

$$
MIZ043>046-050>051-056>058-064>065-071>073-077>080-240400-
SOUTHWEST LOWER MICHIGAN

CITY           SKY/WX    TMP DP  RH WIND       PRES   REMARKS
BATTLE CREEK   CLEAR     33  24  69 S8        29.94S WCI  26
BENTON HARBOR  CLEAR     34  24  67 S3        29.93S
COLDWATER*     CLEAR     34  22  61 S3        29.95S
HILLSDALE*     CLEAR     32  21  64 S5        29.95S WCI  27
HOLLAND        CLEAR     33  26  75 S6        29.91F WCI  28
GRAND RAPIDS   PTCLDY    32  26  78 S8        29.90F WCI  25
KALAMAZOO      CLEAR     34  22  61 S6        29.94S WCI  29
STURGIS*       CLEAR     32  24  71 S3        29.94S
THREE RIVERS*  FAIR      32  26  77 S3        29.95S

$$
OHZ001>008-015>018-024>025-240400-
NORTHWEST OHIO

CITY           SKY/WX    TMP DP  RH WIND       PRES   REMARKS
DEFIANCE       CLEAR     31  24  75 S6        29.99F WCI  25
FINDLAY        CLEAR     31  23  72 S6        30.00S WCI  25
TOLEDO EXPRESS CLEAR     31  27  85 S5        30.00S WCI  26
TOLEDO METCALF CLOUDY    34  26  72 S6        30.01S WCI  29
LIMA           CLEAR     32  25  75 SW3       30.01R

$$
AND FOR LAKE MICHIGAN COASTAL AND OPEN LAKE BUOY OBSERVATIONS

STATION/POSITION TEMP    WIND        PRES    VSBY  WAVE
                 AIR SEA DIR/SP/G                  HT/PER
                 (F)     (DEG/KT/KT) (MB)    (MI)  (FT/S)
CALUMET HARBOR    39     190/  3/  4 1012.6F
MICHIGAN CITY     39     160/ 10/ 12   N/A
BURNS HARBOR      39     190/  8/ 10 1013.9F
SAINT JOSEPH      38     160/  5/ 10 1014.2
SOUTH LAKE BUOY   44 47  240/  8/ 10 1013.4          1/ 4

$$
&&




USA.gov is the U.S. government's official web portal to all federal, state and local government web resources and services.